| time (UTC) | temp C | wind direction | speed KPH | gust KPH | rain 1hr cm | rain 24hr cm | rain mn cm | humidity % | barometer mb |
| 20260506160030 | 12 | 325 | 4.8 | 12.9 | 0.00 | 0.00 | 0.00 | 50 | 1011.5 |
| 20260506154528 | 12 | 292 | 1.6 | 12.9 | 0.00 | 0.00 | 0.00 | 50 | 1011.5 |
| 20260506153026 | 12 | 286 | 4.8 | 14.5 | 0.00 | 0.00 | 0.00 | 46 | 1011.5 |
| 20260506151527 | 12 | 44 | 1.6 | 14.5 | 0.00 | 0.00 | 0.00 | 45 | 1011.5 |
| 20260506150031 | 12 | 254 | 1.6 | 9.7 | 0.00 | 0.00 | 0.00 | 47 | 1011.5 |
| 20260506144526 | 12 | 348 | 3.2 | 12.9 | 0.00 | 0.00 | 0.00 | 45 | 1011.4 |
| 20260506143026 | 13 | 249 | 3.2 | 16.1 | 0.00 | 0.00 | 0.00 | 42 | 1011.5 |
| 20260506141523 | 13 | 244 | 3.2 | 17.7 | 0.00 | 0.00 | 0.00 | 39 | 1011.6 |
| 20260506140025 | 13 | 4 | 4.8 | 19.3 | 0.00 | 0.00 | 0.00 | 38 | 1011.7 |
| 20260506134522 | 13 | 346 | 3.2 | 17.7 | 0.00 | 0.00 | 0.00 | 38 | 1011.5 |
| 20260506133021 | 13 | 200 | 6.4 | 17.7 | 0.00 | 0.00 | 0.00 | 39 | 1011.7 |
| 20260506131532 | 13 | 279 | 6.4 | 12.9 | 0.00 | 0.00 | 0.00 | 35 | 1011.5 |
| 20260506130023 | 13 | 244 | 4.8 | 16.1 | 0.00 | 0.00 | 0.00 | 36 | 1011.6 |
| 20260506124519 | 13 | 248 | 4.8 | 16.1 | 0.00 | 0.00 | 0.00 | 32 | 1011.7 |
| 20260506123017 | 13 | 298 | 3.2 | 20.9 | 0.00 | 0.00 | 0.00 | 33 | 1011.7 |
| 20260506121516 | 13 | 236 | 9.7 | 17.7 | 0.00 | 0.00 | 0.00 | 30 | 1011.8 |
| 20260506120019 | 13 | 240 | 9.7 | 20.9 | 0.00 | 0.00 | 0.00 | 31 | 1012.0 |
| 20260506114521 | 14 | 237 | 4.8 | 19.3 | 0.00 | 0.00 | 0.00 | 32 | 1011.9 |
| 20260506113025 | 13 | 288 | 8.0 | 22.5 | 0.00 | 0.00 | 0.00 | 35 | 1012.0 |
| 20260506111513 | 13 | 202 | 12.9 | 19.3 | 0.00 | 0.00 | 0.00 | 31 | 1011.9 |
| 20260506110012 | 13 | 223 | 8.0 | 27.4 | 0.00 | 0.00 | 0.00 | 31 | 1012.0 |
| 20260506104510 | 13 | 240 | 9.7 | 19.3 | 0.00 | 0.00 | 0.00 | 30 | 1012.0 |
| 20260506103012 | 13 | 238 | 11.3 | 24.1 | 0.00 | 0.00 | 0.00 | 30 | 1012.0 |
| 20260506101509 | 13 | 234 | 11.3 | 24.1 | 0.00 | 0.00 | 0.00 | 30 | 1012.0 |
| 20260506100008 | 12 | 236 | 14.5 | 20.9 | 0.00 | 0.00 | 0.00 | 28 | 1011.9 |
| 20260506094504 | 13 | 193 | 9.7 | 27.4 | 0.00 | 0.00 | 0.00 | 29 | 1012.1 |
| 20260506093058 | 12 | 247 | 11.3 | 17.7 | 0.00 | 0.00 | 0.00 | 32 | 1012.1 |
| 20260506091601 | 12 | 196 | 9.7 | 17.7 | 0.00 | 0.00 | 0.00 | 33 | 1012.0 |
| 20260506090100 | 12 | 179 | 8.0 | 16.1 | 0.00 | 0.00 | 0.00 | 32 | 1012.1 |
| 20260506084552 | 12 | 219 | 9.7 | 16.1 | 0.00 | 0.00 | 0.00 | 30 | 1012.0 |
| 20260506083048 | 11 | 182 | 11.3 | 19.3 | 0.00 | 0.00 | 0.00 | 31 | 1012.2 |
| 20260506081543 | 12 | 157 | 6.4 | 16.1 | 0.00 | 0.00 | 0.00 | 35 | 1012.2 |
| 20260506073033 | 10 | 127 | 4.8 | 16.1 | 0.00 | 0.00 | 0.00 | 35 | 1012.2 |
| 20260506071529 | 10 | 72 | 4.8 | 14.5 | 0.00 | 0.00 | 0.00 | 39 | 1012.3 |
| 20260506061515 | 6 | 80 | 0.0 | 9.7 | 0.00 | 0.00 | 0.00 | 59 | 1012.2 |
| 20260506050130 | 2 | 54 | 0.0 | 3.2 | 0.00 | 0.00 | 0.00 | 77 | 1012.6 |
| 20260506044553 | 1 | 54 | 0.0 | 1.6 | 0.00 | 0.00 | 0.00 | 81 | 1012.7 |
| 20260506043051 | 0 | 54 | 0.0 | 1.6 | 0.00 | 0.00 | 0.00 | 84 | 1012.7 |
| 20260506041550 | 0 | 54 | 0.0 | 0.0 | 0.00 | 0.00 | 0.00 | 87 | 1012.6 |
| 20260506040049 | 0 | 54 | 0.0 | 1.6 | 0.00 | 0.00 | 0.00 | 85 | 1012.6 |
| 20260506034559 | -1 | 54 | 0.0 | 3.2 | 0.00 | 0.00 | 0.00 | 86 | 1012.4 |
| 20260506033045 | -1 | 38 | 0.0 | 4.8 | 0.00 | 0.00 | 0.00 | 85 | 1012.4 |
| 20260506031544 | -1 | 31 | 0.0 | 1.6 | 0.00 | 0.00 | 0.00 | 85 | 1012.2 |
| 20260506030043 | -1 | 35 | 0.0 | 3.2 | 0.00 | 0.00 | 0.00 | 85 | 1012.2 |
| 20260506024557 | 0 | 35 | 0.0 | 3.2 | 0.00 | 0.00 | 0.00 | 84 | 1012.2 |
| 20260506023040 | -1 | 35 | 0.0 | 0.0 | 0.00 | 0.00 | 0.00 | 86 | 1012.2 |
| 20260506021539 | -1 | 35 | 0.0 | 0.0 | 0.00 | 0.00 | 0.00 | 86 | 1012.1 |
| 20260506020038 | -1 | 35 | 0.0 | 0.0 | 0.00 | 0.00 | 0.00 | 84 | 1012.2 |
| 20260506014537 | -1 | 35 | 0.0 | 1.6 | 0.00 | 0.00 | 0.00 | 84 | 1012.1 |
| 20260506013051 | 0 | 35 | 0.0 | 0.0 | 0.00 | 0.00 | 0.00 | 84 | 1012.1 |
| 20260506011536 | 0 | 35 | 0.0 | 3.2 | 0.00 | 0.00 | 0.00 | 83 | 1011.9 |
| 20260506010034 | 0 | 35 | 0.0 | 0.0 | 0.00 | 0.00 | 0.00 | 82 | 1011.9 |
| 20260506004533 | 0 | 35 | 0.0 | 0.0 | 0.00 | 0.00 | 0.00 | 83 | 1011.8 |
| 20260506003034 | 0 | 35 | 0.0 | 0.0 | 0.00 | 0.00 | 0.00 | 81 | 1011.9 |
| 20260506001532 | 0 | 35 | 0.0 | 0.0 | 0.00 | 0.00 | 0.00 | 82 | 1011.9 |
| 20260506000028 | 0 | 35 | 0.0 | 0.0 | 0.00 | 0.00 | 0.00 | 81 | 1011.9 |
| 20260505234534 | 0 | 35 | 0.0 | 0.0 | 0.00 | 0.00 | 0.00 | 81 | 1011.9 |
| 20260505233026 | 0 | 35 | 0.0 | 0.0 | 0.00 | 0.00 | 0.00 | 82 | 1012.0 |
| 20260505231525 | 0 | 35 | 0.0 | 0.0 | 0.00 | 0.00 | 0.00 | 80 | 1012.1 |
| 20260505230038 | 0 | 35 | 0.0 | 0.0 | 0.00 | 0.00 | 0.00 | 82 | 1011.9 |
| 20260505224522 | 1 | 35 | 0.0 | 0.0 | 0.00 | 0.00 | 0.00 | 79 | 1012.1 |
| 20260505223020 | 1 | 35 | 0.0 | 0.0 | 0.00 | 0.00 | 0.00 | 79 | 1012.0 |
| 20260505221519 | 1 | 35 | 0.0 | 0.0 | 0.00 | 0.00 | 0.00 | 79 | 1012.1 |
| 20260505220014 | 2 | 35 | 0.0 | 0.0 | 0.00 | 0.00 | 0.00 | 77 | 1012.1 |
| 20260505214514 | 2 | 35 | 0.0 | 0.0 | 0.00 | 0.00 | 0.00 | 76 | 1012.2 |
| 20260505213012 | 1 | 35 | 0.0 | 0.0 | 0.00 | 0.00 | 0.00 | 77 | 1012.1 |
| 20260505211512 | 2 | 35 | 0.0 | 0.0 | 0.00 | 0.00 | 0.00 | 75 | 1012.1 |
| 20260505210009 | 2 | 35 | 0.0 | 0.0 | 0.00 | 0.00 | 0.00 | 73 | 1012.1 |
| 20260505204507 | 3 | 35 | 0.0 | 4.8 | 0.00 | 0.00 | 0.00 | 72 | 1012.1 |
| 20260505203006 | 3 | 265 | 0.0 | 1.6 | 0.00 | 0.00 | 0.00 | 72 | 1012.1 |
| 20260505201506 | 3 | 265 | 0.0 | 1.6 | 0.00 | 0.00 | 0.00 | 71 | 1012.1 |
| 20260505200005 | 3 | 265 | 0.0 | 1.6 | 0.00 | 0.00 | 0.00 | 70 | 1012.1 |
| 20260505194612 | 4 | 265 | 0.0 | 0.0 | 0.00 | 0.00 | 0.00 | 68 | 1012.0 |
| 20260505193054 | 4 | 296 | 0.0 | 1.6 | 0.00 | 0.00 | 0.00 | 66 | 1011.9 |
| 20260505191552 | 5 | 296 | 0.0 | 1.6 | 0.00 | 0.00 | 0.00 | 64 | 1011.9 |
| 20260505190049 | 6 | 306 | 0.0 | 1.6 | 0.00 | 0.00 | 0.00 | 60 | 1011.8 |
| 20260505184546 | 6 | 254 | 0.0 | 3.2 | 0.00 | 0.00 | 0.00 | 60 | 1011.7 |
| 20260505183056 | 6 | 268 | 0.0 | 3.2 | 0.00 | 0.00 | 0.00 | 58 | 1011.6 |
| 20260505181544 | 7 | 257 | 0.0 | 4.8 | 0.00 | 0.00 | 0.00 | 55 | 1011.5 |
| 20260505180045 | 7 | 247 | 0.0 | 3.2 | 0.00 | 0.00 | 0.00 | 53 | 1011.5 |
| 20260505174548 | 8 | 255 | 0.0 | 9.7 | 0.00 | 0.00 | 0.00 | 51 | 1011.5 |
| 20260505173047 | 8 | 246 | 1.6 | 6.4 | 0.00 | 0.00 | 0.00 | 50 | 1011.4 |
| 20260505171542 | 8 | 266 | 3.2 | 8.0 | 0.00 | 0.00 | 0.00 | 49 | 1011.5 |
| 20260505170043 | 9 | 314 | 1.6 | 9.7 | 0.00 | 0.00 | 0.00 | 49 | 1011.5 |
| 20260505164556 | 9 | 322 | 1.6 | 9.7 | 0.00 | 0.00 | 0.00 | 50 | 1011.5 |
| 20260505163048 | 10 | 86 | 1.6 | 6.4 | 0.00 | 0.00 | 0.00 | 50 | 1011.7 |
| 20260505161544 | 10 | 9 | 3.2 | 9.7 | 0.00 | 0.00 | 0.00 | 49 | 1011.7 |